When you browse on this site, cookies collect data to enhance your experience and personalize the content and advertising you see.
Visit our Privacy Policy to learn more. By continuing to use the site, you agree to this use of cookies and data.
  • în România
  • Lista ţărilor
  • Pe 7 zile
  • Temperatura apei
  • Hartă satelitară
  • Meteo pe hartă
  • Widget-uri
  • user-avatar
    Intrare

    Meteo pe oră la Kalmazan

    Astăzi, 17 Iulie, Miercuri

    Timp Temperatura Precipitaţii Vânt Presiune Umiditate
    00:00 +15°C° 0 mm 1 m/s 745 mmHg 92%
    01:00 +15°C° 0 mm 1 m/s 745 mmHg 92%
    02:00 +15°C° 0 mm 1 m/s 745 mmHg 92%
    03:00 +13°C° 0 mm 0 m/s 745 mmHg 92%
    04:00 +13°C° 0 mm 0 m/s 745 mmHg 91%
    05:00 +14°C° 0 mm 0 m/s 746 mmHg 88%
    06:00 +16°C° 0 mm 1 m/s 746 mmHg 86%
    07:00 +19°C° 0 mm 1 m/s 746 mmHg 83%
    08:00 +20°C° 0 mm 1 m/s 746 mmHg 79%
    09:00 +21°C° 0 mm 1 m/s 746 mmHg 75%
    10:00 +23°C° 0 mm 1 m/s 746 mmHg 71%
    11:00 +23°C° 0 mm 1 m/s 746 mmHg 67%
    12:00 +24°C° 0 mm 1 m/s 746 mmHg 63%
    13:00 +25°C° 0 mm 1 m/s 746 mmHg 60%
    14:00 +25°C° 0 mm 1 m/s 746 mmHg 61%
    15:00 +25°C° 0 mm 1 m/s 745 mmHg 62%
    16:00 +25°C° 0 mm 2 m/s 745 mmHg 63%
    17:00 +24°C° 0 mm 2 m/s 745 mmHg 68%
    18:00 +23°C° 0 mm 2 m/s 745 mmHg 74%
    19:00 +21°C° 0 mm 2 m/s 745 mmHg 79%
    20:00 +20°C° 0 mm 2 m/s 745 mmHg 80%
    21:00 +19°C° 0 mm 2 m/s 745 mmHg 81%
    22:00 +17°C° 0 mm 3 m/s 745 mmHg 83%
    23:00 +17°C° 0 mm 2 m/s 744 mmHg 83%

    Mâine, 18 Iulie, Joi

    Timp Temperatura Precipitaţii Vânt Presiune Umiditate
    00:00 +17°C° 0 mm 2 m/s 744 mmHg 83%
    01:00 +17°C° 0 mm 2 m/s 744 mmHg 84%
    02:00 +16°C° 0 mm 2 m/s 744 mmHg 84%
    03:00 +16°C° 0 mm 2 m/s 744 mmHg 84%
    04:00 +16°C° 0 mm 3 m/s 744 mmHg 84%
    05:00 +17°C° 0 mm 2 m/s 743 mmHg 83%
    06:00 +18°C° 0 mm 2 m/s 743 mmHg 83%
    07:00 +20°C° 0 mm 1 m/s 743 mmHg 82%
    08:00 +20°C° 0 mm 2 m/s 743 mmHg 80%
    09:00 +23°C° 0 mm 2 m/s 743 mmHg 77%
    10:00 +24°C° 0 mm 2 m/s 743 mmHg 75%
    11:00 +25°C° 0 mm 3 m/s 742 mmHg 72%
    12:00 +26°C° 0 mm 3 m/s 742 mmHg 70%
    13:00 +28°C° 0 mm 4 m/s 742 mmHg 67%
    14:00 +28°C° 0 mm 3 m/s 741 mmHg 69%
    15:00 +28°C° 0 mm 3 m/s 741 mmHg 71%
    16:00 +28°C° 0 mm 3 m/s 741 mmHg 73%
    17:00 +27°C° 0 mm 3 m/s 741 mmHg 75%
    18:00 +26°C° 0 mm 3 m/s 741 mmHg 77%
    19:00 +25°C° 0 mm 3 m/s 740 mmHg 79%
    20:00 +24°C° 0.1 mm 2 m/s 740 mmHg 80%
    21:00 +23°C° 0.1 mm 2 m/s 740 mmHg 81%
    22:00 +20°C° 0.1 mm 2 m/s 740 mmHg 81%
    23:00 +20°C° 0.1 mm 2 m/s 740 mmHg 85%

    Poimâine, 19 Iulie, Vineri

    Timp Temperatura Precipitaţii Vânt Presiune Umiditate
    00:00 +19°C° 0.1 mm 2 m/s 740 mmHg 88%
    01:00 +18°C° 0.1 mm 2 m/s 740 mmHg 91%
    02:00 +18°C° 0 mm 2 m/s 740 mmHg 93%
    03:00 +18°C° 0 mm 2 m/s 740 mmHg 94%
    04:00 +17°C° 0 mm 2 m/s 740 mmHg 95%
    05:00 +19°C° 0 mm 2 m/s 740 mmHg 95%
    06:00 +20°C° 0 mm 2 m/s 740 mmHg 94%
    07:00 +21°C° 0 mm 2 m/s 741 mmHg 94%
    08:00 +23°C° 0 mm 2 m/s 741 mmHg 90%
    09:00 +24°C° 0 mm 2 m/s 741 mmHg 86%
    10:00 +25°C° 0 mm 2 m/s 741 mmHg 82%
    11:00 +26°C° 0.2 mm 3 m/s 741 mmHg 79%
    12:00 +26°C° 0.2 mm 3 m/s 741 mmHg 77%
    13:00 +27°C° 0.2 mm 3 m/s 742 mmHg 75%
    14:00 +27°C° 0.2 mm 3 m/s 742 mmHg 74%
    15:00 +27°C° 0.2 mm 3 m/s 742 mmHg 74%
    16:00 +27°C° 0.2 mm 3 m/s 742 mmHg 74%
    17:00 +27°C° 0 mm 3 m/s 742 mmHg 77%
    18:00 +26°C° 0 mm 2 m/s 742 mmHg 80%
    19:00 +25°C° 0 mm 2 m/s 742 mmHg 83%
    20:00 +24°C° 0 mm 2 m/s 742 mmHg 86%
    21:00 +21°C° 0 mm 2 m/s 743 mmHg 89%
    22:00 +20°C° 0 mm 2 m/s 743 mmHg 92%
    23:00 +20°C° 0 mm 1 m/s 743 mmHg 92%

    20 Iulie, Sâmbătă

    Timp Temperatura Precipitaţii Vânt Presiune Umiditate
    00:00 +20°C° 0 mm 1 m/s 743 mmHg 93%
    01:00 +17°C° 0 mm 0 m/s 743 mmHg 93%
    02:00 +17°C° 0 mm 0 m/s 743 mmHg 93%
    03:00 +17°C° 0 mm 0 m/s 743 mmHg 93%
    04:00 +17°C° 0 mm 0 m/s 743 mmHg 93%
    05:00 +18°C° 0 mm 0 m/s 743 mmHg 92%
    06:00 +19°C° 0 mm 0 m/s 744 mmHg 90%
    07:00 +20°C° 0 mm 0 m/s 744 mmHg 89%
    08:00 +23°C° 0.2 mm 1 m/s 744 mmHg 85%
    09:00 +24°C° 0.2 mm 1 m/s 744 mmHg 82%
    10:00 +25°C° 0.2 mm 1 m/s 743 mmHg 78%
    11:00 +25°C° 0.7 mm 1 m/s 743 mmHg 75%
    12:00 +26°C° 0.7 mm 1 m/s 743 mmHg 72%
    13:00 +26°C° 0.7 mm 1 m/s 743 mmHg 68%
    14:00 +27°C° 0.1 mm 1 m/s 743 mmHg 67%
    15:00 +27°C° 0.1 mm 1 m/s 743 mmHg 66%
    16:00 +27°C° 0.1 mm 1 m/s 743 mmHg 64%
    17:00 +26°C° 0.1 mm 1 m/s 743 mmHg 70%
    18:00 +25°C° 0.1 mm 1 m/s 743 mmHg 77%
    19:00 +24°C° 0.1 mm 1 m/s 743 mmHg 83%
    20:00 +23°C° 0.5 mm 1 m/s 743 mmHg 84%
    21:00 +22°C° 0.5 mm 1 m/s 743 mmHg 85%
    22:00 +21°C° 0.5 mm 1 m/s 743 mmHg 86%
    23:00 +20°C° 0.8 mm 1 m/s 743 mmHg 88%

    21 Iulie, Duminică

    Timp Temperatura Precipitaţii Vânt Presiune Umiditate
    00:00 +19°C° 0.8 mm 1 m/s 743 mmHg 89%
    01:00 +19°C° 0.8 mm 1 m/s 743 mmHg 90%
    02:00 +17°C° 0 mm 2 m/s 742 mmHg 91%
    03:00 +17°C° 0 mm 2 m/s 742 mmHg 92%
    04:00 +16°C° 0 mm 2 m/s 742 mmHg 93%
    05:00 +17°C° 0 mm 2 m/s 742 mmHg 92%
    06:00 +18°C° 0 mm 2 m/s 742 mmHg 92%
    07:00 +19°C° 0 mm 3 m/s 742 mmHg 91%
    08:00 +20°C° 0.1 mm 3 m/s 742 mmHg 87%
    09:00 +21°C° 0.1 mm 3 m/s 742 mmHg 84%
    10:00 +22°C° 0.1 mm 4 m/s 742 mmHg 80%
    11:00 +23°C° 0.5 mm 4 m/s 742 mmHg 78%
    12:00 +23°C° 0.5 mm 4 m/s 742 mmHg 77%
    13:00 +23°C° 0.5 mm 5 m/s 742 mmHg 75%
    14:00 +23°C° 0.3 mm 5 m/s 742 mmHg 75%
    15:00 +23°C° 0.3 mm 5 m/s 742 mmHg 74%
    16:00 +23°C° 0.3 mm 4 m/s 742 mmHg 74%
    17:00 +23°C° 0.4 mm 4 m/s 742 mmHg 78%
    18:00 +22°C° 0.4 mm 4 m/s 741 mmHg 81%
    19:00 +21°C° 0.4 mm 3 m/s 741 mmHg 84%
    20:00 +20°C° 0 mm 3 m/s 741 mmHg 87%
    21:00 +18°C° 0 mm 3 m/s 741 mmHg 90%
    22:00 +17°C° 0 mm 3 m/s 741 mmHg 93%
    23:00 +17°C° 0 mm 3 m/s 741 mmHg 94%

    22 Iulie, Luni

    Timp Temperatura Precipitaţii Vânt Presiune Umiditate
    00:00 +16°C° 0 mm 3 m/s 741 mmHg 95%
    01:00 +16°C° 0 mm 3 m/s 741 mmHg 96%
    02:00 +14°C° 0 mm 3 m/s 740 mmHg 96%
    03:00 +14°C° 0 mm 3 m/s 740 mmHg 97%
    04:00 +14°C° 0 mm 3 m/s 740 mmHg 97%
    05:00 +16°C° 0 mm 3 m/s 740 mmHg 95%
    06:00 +17°C° 0 mm 3 m/s 740 mmHg 94%
    07:00 +17°C° 0 mm 3 m/s 740 mmHg 92%
    08:00 +19°C° 0.3 mm 3 m/s 740 mmHg 89%
    09:00 +20°C° 0.3 mm 3 m/s 739 mmHg 86%
    10:00 +21°C° 0.3 mm 3 m/s 739 mmHg 83%
    11:00 +21°C° 0.8 mm 3 m/s 739 mmHg 80%
    12:00 +22°C° 0.8 mm 3 m/s 739 mmHg 78%
    13:00 +24°C° 0.8 mm 3 m/s 739 mmHg 76%
    14:00 +22°C° 1.9 mm 3 m/s 738 mmHg 77%
    15:00 +22°C° 1.9 mm 3 m/s 738 mmHg 79%
    16:00 +22°C° 1.9 mm 4 m/s 738 mmHg 80%
    17:00 +22°C° 0.4 mm 3 m/s 738 mmHg 83%
    18:00 +21°C° 0.4 mm 3 m/s 738 mmHg 85%
    19:00 +20°C° 0.4 mm 3 m/s 738 mmHg 88%
    20:00 +19°C° 0 mm 3 m/s 738 mmHg 91%
    21:00 +18°C° 0 mm 3 m/s 738 mmHg 93%
    22:00 +16°C° 0 mm 3 m/s 738 mmHg 96%
    23:00 +16°C° 0 mm 3 m/s 737 mmHg 96%
    Arată mai mult